Regional Weather Roundup
Issued by NWS

Home | Current Version | Previous Version | Text Only | Print | Product List | Glossary On
Versions: 1 2 3 4 5 6 7 8 9 10 11 12 13 14 15 16 17 18 19 20 21 22 23 24 25 26 27 28 29 30 31 32 33 34 35 36 37 38 39 40 41 42 43 44 45 46 47 48 49 50
000
ASUS43 KDTX 241510
RWRMI
MICHIGAN HOURLY REGIONAL WEATHER ROUNDUP
NATIONAL WEATHER SERVICE DETROIT/PONTIAC MI
1100 AM EDT WED AUG 24 2016

NOTE: "FAIR" INDICATES FEW OR NO CLOUDS BELOW 12,000 FEET WITH NO
SIGNIFICANT WEATHER AND/OR OBSTRUCTION TO VISIBILITY.

MIZ047>049-052>055-059>063-066>070-074>076-081>083-241600-
SOUTHEAST LOWER MICHIGAN

CITY           SKY/WX    TMP DP  RH WIND       PRES   REMARKS
ADRIAN         CLOUDY    75  66  73 S9        30.12F
ALMA           MOSUNNY   76  69  78 S14G22    30.03F
ANN ARBOR      MOSUNNY   76  64  66 S12       30.11F
BAD AXE        MOSUNNY   75  63  64 S15G24    30.07F
CARO           MOSUNNY   78  65  64 S9        30.06F
DETROIT CITY   SUNNY     79  64  60 SW16      30.12S
DETROIT        MOSUNNY   77  63  61 S14       30.12S
FLINT          MOSUNNY   80  63  55 S13G22    30.08S
GROSSE ILE     CLOUDY    76  65  69 S14       30.11S
HILLSDALE      CLOUDY    73  65  75 S7        30.10F
HOWELL         MOSUNNY   76  64  65 S9G17     30.10S

CITY           SKY/WX    TMP DP  RH WIND       PRES   REMARKS
JACKSON        CLOUDY    77  67  71 S10       30.08F
LAMBERTVILLE   SUNNY     78  65  63 S7        30.13S
LANSING        MOSUNNY   77  65  66 S12       30.05F
LAPEER         FAIR      77  61  57 S13G20    30.09F
MASON          PTSUNNY   76  65  68 S10       30.07F
MONROE         SUNNY     77  66  68 S9G18     30.12S
MT. CLEMENS    MOSUNNY   78  66  66 S18       30.10S
PONTIAC        MOSUNNY   77  61  57 S15       30.10F
PORT HURON     SUNNY     77  64  65 S14       30.12S
TRI CITIES     CLOUDY    75  65  70 S13       30.04F
MIDLAND        PTSUNNY   74  63  68 S10G18    30.02F
TROY           SUNNY     81  59  47 S16       30.12F
SAGINAW HB     CLOUDY    75  63  64 S12       30.04F
$$
MIZ043>046-050>051-056>058-064>065-071>073-077>080-241600-
SOUTHWEST LOWER MICHIGAN

CITY           SKY/WX    TMP DP  RH WIND       PRES   REMARKS
BATTLE CREEK   RAIN      70  68  93 S12       30.06F FOG
BENTON HARBOR  CLOUDY    75  67  76 S13       30.03F
BIG RAPIDS     CLOUDY    73  67  81 S10G16    29.99S
COLDWATER      PTSUNNY   76  67  74 S8        30.08F
FREMONT        LGT RAIN  70  67  91 SW13      30.00R
HOLLAND        LGT RAIN  72  69  90 SW17G26   30.02F FOG
GRAND RAPIDS   CLOUDY    74  65  73 S10       30.02F
IONIA          CLOUDY    76  64  66 S15G22    30.02F
KALAMAZOO      CLOUDY    73  67  81 S9        30.05F
LUDINGTON      LGT RAIN  71  71  98 SW20G26   29.92F
MARSHALL       PTSUNNY   75  66  73 S9        30.07F
MOUNT PLEASANT MOSUNNY   76  66  71 S10G16    30.01F
MUSKEGON       CLOUDY    75  70  84 S16       29.99F
SOUTH HAVEN    CLOUDY    75  70  84 S10G17    30.02F
$$
MIZ016>042-241600-
NORTHERN LOWER MICHIGAN

CITY           SKY/WX    TMP DP  RH WIND       PRES   REMARKS
ALPENA         HVY RAIN  70  64  81 S10       30.00F
BEAVER ISLAND  HVY RAIN  65  64  98 SE13      29.88F VSB 3/4
BELLAIRE       CLOUDY    71  65  82 S9G16     29.91S
CADILLAC       CLOUDY    71  65  81 S14G23    29.97R
CHARLEVOIX     CLOUDY    67  66  97 SE10      29.91F
FRANKFORT      LGT RAIN  72  68  88 S16G23    29.90R
GAYLORD        CLOUDY    70  62  76 S21G28    29.97F
GRAYLING       CLOUDY    68  64  86 S9        29.99S
HARBOR SPRINGS CLOUDY    63  62  96 NE9       29.91F
HOUGHTON LAKE  CLOUDY    70  63  78 S13G20    30.01S
MANISTEE       RAIN      72  70  94 S10G20    29.91R FOG
OSCODA         CLOUDY    74  62  66 S13G23    30.03F
PELLSTON       TSTM      64  62  93 SE9       29.92F
ROGERS CITY    CLOUDY    71  62  72 S13       29.97F
TRAVERSE CITY  CLOUDY    74  67  78 VRB6G17   29.90R
$$
MIZ007>008-015-241600-
EASTERN UPPER MICHIGAN

CITY           SKY/WX    TMP DP  RH WIND       PRES   REMARKS
KINROSS        RAIN      64  62  93 SE12      29.94F
MACKINAC ISLAN HVY RAIN  64  64 100 SE3       29.93S VSB 1/2
NEWBERRY       RAIN      65  64  97 SE10      29.89F
S. S. MARIE    LGT RAIN  67  63  87 SE9       29.95F
$$
MIZ004>006-011>014-085-241600-
CENTRAL UPPER MICHIGAN

CITY           SKY/WX    TMP DP  RH WIND       PRES   REMARKS
MANISTIQUE     RAIN      67  64  92 SE12G18   29.86S
MENOMINEE      CLOUDY   N/A N/A N/A SW10        N/A
SAWYER-GWINN   CLOUDY    66  64  94 SW10      29.86R
$$
MIZ001>003-009>011-084-241600-
WESTERN UPPER MICHIGAN

CITY           SKY/WX    TMP DP  RH WIND       PRES   REMARKS
IRON MOUNTAIN  CLOUDY    68  65  90 S7        29.83S
HOUGHTON       PTSUNNY   71  64  78 S7        29.82F
COPPER HARBOR    N/A     71  65  81 SW12G23   29.79F
IRONWOOD       CLOUDY    69  66  90 SW5       29.82F
$$

ABBREVIATIONS USED IN REMARKS
   TC - TEMPERATURE IN CELSIUS
  WCI - WIND CHILL INDEX
   HX - HEAT INDEX
  VSB - VISIBILITY





USA.gov is the U.S. government's official web portal to all federal, state and local government web resources and services.